| time (UTC) | temp F | wind direction | speed MPH | gust MPH | rain 1hr in | rain 24hr in | rain mn in | humidity % | barometer mb |
| 20260506073047 | 27 | 360 | 7.0 | 9.0 | 0.00 | 0.00 | 0.00 | 55 | 1006.6 |
| 20260506072542 | 28 | 360 | 7.0 | 9.0 | 0.00 | 0.00 | 0.00 | 54 | 1006.6 |
| 20260506072042 | 28 | 360 | 7.0 | 9.0 | 0.00 | 0.00 | 0.00 | 54 | 1006.5 |
| 20260506071541 | 28 | 360 | 7.0 | 9.0 | 0.00 | 0.00 | 0.00 | 55 | 1006.6 |
| 20260506071040 | 28 | 360 | 8.0 | 9.0 | 0.00 | 0.00 | 0.00 | 55 | 1006.5 |
| 20260506070540 | 28 | 360 | 7.0 | 9.0 | 0.00 | 0.00 | 0.00 | 54 | 1006.5 |
| 20260506062036 | 29 | 360 | 8.0 | 10.0 | 0.00 | 0.00 | 0.00 | 54 | 1006.5 |
| 20260506061537 | 29 | 360 | 7.0 | 9.0 | 0.00 | 0.00 | 0.00 | 55 | 1006.5 |
| 20260506061037 | 29 | 360 | 7.0 | 10.0 | 0.00 | 0.00 | 0.00 | 55 | 1006.5 |
| 20260506060535 | 29 | 360 | 8.0 | 10.0 | 0.00 | 0.00 | 0.00 | 55 | 1006.5 |
| 20260506051028 | 31 | 360 | 7.0 | 10.0 | 0.00 | 0.00 | 0.00 | 54 | 1006.4 |
| 20260506050528 | 31 | 360 | 8.0 | 10.0 | 0.00 | 0.00 | 0.00 | 54 | 1006.5 |
| 20260506045028 | 31 | 360 | 8.0 | 10.0 | 0.00 | 0.00 | 0.00 | 54 | 1006.3 |
| 20260506044554 | 31 | 360 | 8.0 | 10.0 | 0.00 | 0.00 | 0.00 | 54 | 1006.3 |
| 20260506043526 | 31 | 360 | 8.0 | 10.0 | 0.00 | 0.00 | 0.00 | 54 | 1006.2 |
| 20260506043025 | 31 | 360 | 8.0 | 10.0 | 0.00 | 0.00 | 0.00 | 53 | 1006.3 |
| 20260506042525 | 32 | 360 | 8.0 | 10.0 | 0.00 | 0.00 | 0.00 | 53 | 1006.3 |
| 20260506042025 | 32 | 360 | 8.0 | 10.0 | 0.00 | 0.00 | 0.00 | 52 | 1006.3 |
| 20260506041525 | 33 | 360 | 8.0 | 10.0 | 0.00 | 0.00 | 0.00 | 52 | 1006.3 |
| 20260506041028 | 33 | 360 | 8.0 | 10.0 | 0.00 | 0.00 | 0.00 | 52 | 1006.3 |
| 20260506040524 | 33 | 360 | 8.0 | 10.0 | 0.00 | 0.00 | 0.00 | 51 | 1006.2 |
| 20260506040028 | 33 | 360 | 8.0 | 10.0 | 0.00 | 0.00 | 0.00 | 52 | 1006.3 |
| 20260506035526 | 32 | 360 | 8.0 | 10.0 | 0.00 | 0.00 | 0.00 | 53 | 1006.3 |
| 20260506035024 | 31 | 360 | 7.0 | 9.0 | 0.00 | 0.00 | 0.00 | 53 | 1006.2 |
| 20260506034543 | 32 | 360 | 7.0 | 9.0 | 0.00 | 0.00 | 0.00 | 52 | 1006.3 |
| 20260506033522 | 33 | 360 | 8.0 | 10.0 | 0.00 | 0.00 | 0.00 | 51 | 1006.3 |
| 20260506033022 | 33 | 360 | 7.0 | 9.0 | 0.00 | 0.00 | 0.00 | 51 | 1006.4 |
| 20260506032521 | 33 | 360 | 7.0 | 10.0 | 0.00 | 0.00 | 0.00 | 50 | 1006.2 |
| 20260506032024 | 33 | 360 | 8.0 | 10.0 | 0.00 | 0.00 | 0.00 | 50 | 1006.3 |
| 20260506031520 | 33 | 360 | 7.0 | 10.0 | 0.00 | 0.00 | 0.00 | 50 | 1006.3 |
| 20260506031019 | 34 | 360 | 8.0 | 10.0 | 0.00 | 0.00 | 0.00 | 50 | 1006.2 |
| 20260506030520 | 34 | 360 | 7.0 | 10.0 | 0.00 | 0.00 | 0.00 | 49 | 1006.1 |
| 20260506030016 | 34 | 360 | 8.0 | 10.0 | 0.00 | 0.00 | 0.00 | 49 | 1006.1 |
| 20260506025516 | 35 | 360 | 8.0 | 10.0 | 0.00 | 0.00 | 0.00 | 48 | 1006.0 |
| 20260506025014 | 36 | 360 | 7.0 | 10.0 | 0.00 | 0.00 | 0.00 | 47 | 1006.0 |
| 20260506024512 | 37 | 360 | 7.0 | 10.0 | 0.00 | 0.00 | 0.00 | 46 | 1005.9 |
| 20260506023611 | 38 | 360 | 8.0 | 11.0 | 0.00 | 0.00 | 0.00 | 45 | 1005.8 |
| 20260506023009 | 38 | 360 | 9.0 | 11.0 | 0.00 | 0.00 | 0.00 | 44 | 1005.8 |
| 20260506022507 | 39 | 360 | 8.0 | 10.0 | 0.00 | 0.00 | 0.00 | 43 | 1005.7 |
| 20260506022006 | 39 | 360 | 7.0 | 11.0 | 0.00 | 0.00 | 0.00 | 42 | 1005.6 |
| 20260506021505 | 40 | 360 | 9.0 | 13.0 | 0.00 | 0.00 | 0.00 | 41 | 1005.6 |
| 20260506021004 | 41 | 360 | 9.0 | 15.0 | 0.00 | 0.00 | 0.00 | 40 | 1005.5 |
| 20260506020503 | 42 | 360 | 11.0 | 15.0 | 0.00 | 0.00 | 0.00 | 40 | 1005.6 |
| 20260506020001 | 42 | 360 | 10.0 | 14.0 | 0.00 | 0.00 | 0.00 | 39 | 1005.4 |
| 20260506015600 | 43 | 360 | 10.0 | 15.0 | 0.00 | 0.00 | 0.00 | 39 | 1005.4 |
| 20260506015059 | 43 | 360 | 10.0 | 15.0 | 0.00 | 0.00 | 0.00 | 39 | 1005.5 |
| 20260506014600 | 43 | 360 | 8.0 | 14.0 | 0.00 | 0.00 | 0.00 | 38 | 1005.4 |
| 20260506013600 | 43 | 360 | 11.0 | 15.0 | 0.00 | 0.00 | 0.00 | 38 | 1005.3 |
| 20260506013100 | 44 | 360 | 11.0 | 18.0 | 0.00 | 0.00 | 0.00 | 38 | 1005.4 |
| 20260506012600 | 44 | 360 | 12.0 | 18.0 | 0.00 | 0.00 | 0.00 | 38 | 1005.4 |
| 20260506012059 | 44 | 360 | 11.0 | 15.0 | 0.00 | 0.00 | 0.00 | 38 | 1005.4 |
| 20260506011620 | 43 | 360 | 11.0 | 20.0 | 0.00 | 0.00 | 0.00 | 39 | 1005.4 |
| 20260506011056 | 43 | 360 | 16.0 | 20.0 | 0.00 | 0.00 | 0.00 | 39 | 1005.2 |
| 20260506010556 | 43 | 360 | 11.0 | 16.0 | 0.00 | 0.00 | 0.00 | 39 | 1005.2 |
| 20260506005554 | 43 | 360 | 12.0 | 20.0 | 0.00 | 0.00 | 0.00 | 39 | 1005.2 |
| 20260506005054 | 44 | 360 | 14.0 | 21.0 | 0.00 | 0.00 | 0.00 | 39 | 1005.2 |
| 20260506004621 | 44 | 360 | 13.0 | 21.0 | 0.00 | 0.00 | 0.00 | 39 | 1005.2 |
| 20260506003552 | 44 | 360 | 15.0 | 20.0 | 0.00 | 0.00 | 0.00 | 39 | 1005.2 |
| 20260506003104 | 44 | 360 | 13.0 | 20.0 | 0.00 | 0.00 | 0.00 | 39 | 1005.1 |
| 20260506002550 | 44 | 360 | 14.0 | 19.0 | 0.00 | 0.00 | 0.00 | 38 | 1005.1 |
| 20260506002050 | 44 | 360 | 12.0 | 19.0 | 0.00 | 0.00 | 0.00 | 39 | 1005.0 |
| 20260506001555 | 44 | 360 | 14.0 | 20.0 | 0.00 | 0.00 | 0.00 | 38 | 1005.1 |
| 20260506001050 | 45 | 360 | 14.0 | 20.0 | 0.00 | 0.00 | 0.00 | 38 | 1005.0 |
| 20260506000550 | 45 | 360 | 14.0 | 23.0 | 0.00 | 0.00 | 0.00 | 37 | 1005.0 |
| 20260506000050 | 44 | 360 | 14.0 | 23.0 | 0.00 | 0.00 | 0.00 | 37 | 1005.0 |
| 20260505235549 | 44 | 360 | 11.0 | 20.0 | 0.00 | 0.00 | 0.00 | 37 | 1005.0 |
| 20260505235049 | 44 | 360 | 14.0 | 20.0 | 0.00 | 0.00 | 0.00 | 37 | 1005.0 |
| 20260505234611 | 44 | 360 | 14.0 | 22.0 | 0.00 | 0.00 | 0.00 | 38 | 1004.9 |
| 20260505233548 | 44 | 360 | 13.0 | 22.0 | 0.00 | 0.00 | 0.00 | 38 | 1004.9 |
| 20260505233049 | 44 | 360 | 13.0 | 21.0 | 0.00 | 0.00 | 0.00 | 38 | 1004.9 |
| 20260505232548 | 44 | 360 | 15.0 | 20.0 | 0.00 | 0.00 | 0.00 | 38 | 1004.9 |
| 20260505232048 | 44 | 360 | 10.0 | 21.0 | 0.00 | 0.00 | 0.00 | 38 | 1004.9 |
| 20260505231548 | 45 | 360 | 13.0 | 19.0 | 0.00 | 0.00 | 0.00 | 37 | 1004.8 |
| 20260505231051 | 45 | 360 | 11.0 | 19.0 | 0.00 | 0.00 | 0.00 | 37 | 1004.8 |
| 20260505230548 | 44 | 360 | 14.0 | 19.0 | 0.00 | 0.00 | 0.00 | 37 | 1004.8 |
| 20260505230047 | 44 | 360 | 12.0 | 20.0 | 0.00 | 0.00 | 0.00 | 37 | 1004.8 |
| 20260505225547 | 44 | 360 | 14.0 | 20.0 | 0.00 | 0.00 | 0.00 | 37 | 1004.7 |
| 20260505225047 | 45 | 360 | 13.0 | 21.0 | 0.00 | 0.00 | 0.00 | 36 | 1004.7 |
| 20260505224547 | 45 | 360 | 14.0 | 22.0 | 0.00 | 0.00 | 0.00 | 37 | 1004.7 |
| 20260505223546 | 44 | 360 | 15.0 | 24.0 | 0.00 | 0.00 | 0.00 | 37 | 1004.8 |
| 20260505223046 | 44 | 360 | 13.0 | 24.0 | 0.00 | 0.00 | 0.00 | 38 | 1004.8 |
| 20260505222547 | 44 | 360 | 16.0 | 21.0 | 0.00 | 0.00 | 0.00 | 38 | 1004.8 |
| 20260505222047 | 44 | 360 | 14.0 | 23.0 | 0.00 | 0.00 | 0.00 | 38 | 1004.9 |
| 20260505221546 | 44 | 360 | 14.0 | 26.0 | 0.00 | 0.00 | 0.00 | 37 | 1004.9 |
| 20260505221045 | 44 | 360 | 16.0 | 26.0 | 0.00 | 0.00 | 0.00 | 38 | 1004.7 |
| 20260505220545 | 44 | 360 | 11.0 | 24.0 | 0.00 | 0.00 | 0.00 | 38 | 1004.6 |
| 20260505220059 | 44 | 360 | 17.0 | 24.0 | 0.00 | 0.00 | 0.00 | 38 | 1004.7 |
| 20260505215544 | 44 | 360 | 15.0 | 21.0 | 0.00 | 0.00 | 0.00 | 38 | 1004.7 |
| 20260505215045 | 44 | 360 | 15.0 | 25.0 | 0.00 | 0.00 | 0.00 | 38 | 1004.8 |
| 20260505214545 | 45 | 360 | 17.0 | 24.0 | 0.00 | 0.00 | 0.00 | 39 | 1004.8 |
| 20260505213544 | 44 | 360 | 12.0 | 23.0 | 0.00 | 0.00 | 0.00 | 39 | 1004.8 |
| 20260505213044 | 44 | 360 | 14.0 | 30.0 | 0.00 | 0.00 | 0.00 | 38 | 1004.7 |
| 20260505212543 | 44 | 360 | 15.0 | 30.0 | 0.00 | 0.00 | 0.00 | 38 | 1004.6 |
| 20260505212042 | 44 | 360 | 14.0 | 22.0 | 0.00 | 0.00 | 0.00 | 38 | 1004.7 |
| 20260505211547 | 44 | 360 | 17.0 | 22.0 | 0.00 | 0.00 | 0.00 | 37 | 1004.8 |
| 20260505211043 | 44 | 360 | 13.0 | 21.0 | 0.00 | 0.00 | 0.00 | 39 | 1004.7 |
| 20260505210541 | 44 | 360 | 13.0 | 21.0 | 0.00 | 0.00 | 0.00 | 38 | 1004.8 |
| 20260505210041 | 44 | 360 | 14.0 | 23.0 | 0.00 | 0.00 | 0.00 | 38 | 1004.9 |
| 20260505205539 | 44 | 360 | 12.0 | 24.0 | 0.00 | 0.00 | 0.00 | 38 | 1004.9 |
| 20260505205040 | 44 | 360 | 16.0 | 24.0 | 0.00 | 0.00 | 0.00 | 38 | 1004.9 |
| 20260505204538 | 44 | 360 | 17.0 | 24.0 | 0.00 | 0.00 | 0.00 | 38 | 1004.9 |
| 20260505203541 | 44 | 360 | 13.0 | 23.0 | 0.00 | 0.00 | 0.00 | 38 | 1004.9 |
| 20260505203038 | 44 | 360 | 11.0 | 22.0 | 0.00 | 0.00 | 0.00 | 39 | 1005.0 |
| 20260505202536 | 44 | 360 | 12.0 | 24.0 | 0.00 | 0.00 | 0.00 | 38 | 1005.0 |
| 20260505202037 | 45 | 360 | 15.0 | 24.0 | 0.00 | 0.00 | 0.00 | 37 | 1005.0 |
| 20260505201537 | 44 | 360 | 14.0 | 24.0 | 0.00 | 0.00 | 0.00 | 38 | 1005.1 |
| 20260505201036 | 44 | 360 | 16.0 | 24.0 | 0.00 | 0.00 | 0.00 | 38 | 1005.1 |
| 20260505200536 | 45 | 360 | 17.0 | 21.0 | 0.00 | 0.00 | 0.00 | 37 | 1005.0 |
| 20260505200037 | 44 | 360 | 13.0 | 26.0 | 0.00 | 0.00 | 0.00 | 40 | 1005.2 |
| 20260505195535 | 44 | 360 | 18.0 | 27.0 | 0.00 | 0.00 | 0.00 | 38 | 1005.1 |
| 20260505195035 | 44 | 360 | 17.0 | 27.0 | 0.00 | 0.00 | 0.00 | 38 | 1005.2 |
| 20260505194541 | 45 | 360 | 19.0 | 25.0 | 0.00 | 0.00 | 0.00 | 37 | 1005.0 |
| 20260505193535 | 44 | 360 | 17.0 | 24.0 | 0.00 | 0.00 | 0.00 | 39 | 1005.2 |
| 20260505193042 | 44 | 360 | 12.0 | 22.0 | 0.00 | 0.00 | 0.00 | 38 | 1005.2 |
| 20260505192535 | 44 | 360 | 15.0 | 21.0 | 0.00 | 0.00 | 0.00 | 37 | 1005.0 |
| 20260505192035 | 44 | 360 | 14.0 | 23.0 | 0.00 | 0.00 | 0.00 | 38 | 1005.1 |
| 20260505191549 | 44 | 360 | 16.0 | 23.0 | 0.00 | 0.00 | 0.00 | 37 | 1005.2 |
| 20260505191037 | 44 | 360 | 15.0 | 23.0 | 0.00 | 0.00 | 0.00 | 38 | 1005.1 |
| 20260505190534 | 44 | 360 | 16.0 | 23.0 | 0.00 | 0.00 | 0.00 | 38 | 1005.0 |
| 20260505190034 | 43 | 360 | 16.0 | 23.0 | 0.00 | 0.00 | 0.00 | 38 | 1004.9 |
| 20260505185534 | 43 | 360 | 17.0 | 23.0 | 0.00 | 0.00 | 0.00 | 37 | 1004.9 |
| 20260505185034 | 43 | 360 | 12.0 | 23.0 | 0.00 | 0.00 | 0.00 | 39 | 1005.0 |
| 20260505184534 | 43 | 360 | 18.0 | 25.0 | 0.00 | 0.00 | 0.00 | 37 | 1005.0 |
| 20260505183533 | 43 | 360 | 13.0 | 22.0 | 0.00 | 0.00 | 0.00 | 38 | 1005.0 |
| 20260505183033 | 43 | 360 | 16.0 | 22.0 | 0.00 | 0.00 | 0.00 | 37 | 1004.9 |
| 20260505182535 | 43 | 360 | 14.0 | 22.0 | 0.00 | 0.00 | 0.00 | 37 | 1005.0 |
| 20260505182033 | 43 | 360 | 17.0 | 26.0 | 0.00 | 0.00 | 0.00 | 37 | 1005.0 |
| 20260505181533 | 43 | 360 | 16.0 | 26.0 | 0.00 | 0.00 | 0.00 | 37 | 1004.9 |
| 20260505181033 | 43 | 360 | 15.0 | 24.0 | 0.00 | 0.00 | 0.00 | 38 | 1004.9 |
| 20260505180533 | 43 | 360 | 18.0 | 24.0 | 0.00 | 0.00 | 0.00 | 37 | 1005.1 |
| 20260505180044 | 43 | 360 | 13.0 | 24.0 | 0.00 | 0.00 | 0.00 | 37 | 1005.1 |
| 20260505175532 | 42 | 360 | 14.0 | 25.0 | 0.00 | 0.00 | 0.00 | 38 | 1005.0 |
| 20260505175035 | 42 | 360 | 18.0 | 24.0 | 0.00 | 0.00 | 0.00 | 38 | 1005.1 |
| 20260505174539 | 41 | 360 | 17.0 | 25.0 | 0.00 | 0.00 | 0.00 | 40 | 1005.0 |
| 20260505173536 | 42 | 360 | 16.0 | 25.0 | 0.00 | 0.00 | 0.00 | 39 | 1005.0 |
| 20260505173034 | 42 | 360 | 17.0 | 25.0 | 0.00 | 0.00 | 0.00 | 38 | 1005.0 |
| 20260505172532 | 42 | 360 | 10.0 | 24.0 | 0.00 | 0.00 | 0.00 | 40 | 1004.9 |
| 20260505172032 | 41 | 360 | 12.0 | 24.0 | 0.00 | 0.00 | 0.00 | 41 | 1005.1 |
| 20260505171534 | 40 | 360 | 13.0 | 25.0 | 0.00 | 0.00 | 0.00 | 43 | 1005.1 |
| 20260505171031 | 41 | 360 | 18.0 | 24.0 | 0.00 | 0.00 | 0.00 | 40 | 1005.0 |
| 20260505170530 | 42 | 360 | 14.0 | 24.0 | 0.00 | 0.00 | 0.00 | 42 | 1005.0 |
| 20260505170032 | 42 | 360 | 15.0 | 26.0 | 0.00 | 0.00 | 0.00 | 40 | 1005.2 |
| 20260505165531 | 43 | 360 | 17.0 | 26.0 | 0.00 | 0.00 | 0.00 | 39 | 1004.9 |
| 20260505165030 | 42 | 360 | 17.0 | 23.0 | 0.00 | 0.00 | 0.00 | 41 | 1004.9 |
| 20260505164530 | 41 | 360 | 15.0 | 23.0 | 0.00 | 0.00 | 0.00 | 42 | 1005.0 |
| 20260505163530 | 40 | 360 | 17.0 | 25.0 | 0.00 | 0.00 | 0.00 | 47 | 1005.1 |
| 20260505163029 | 40 | 360 | 18.0 | 23.0 | 0.00 | 0.00 | 0.00 | 47 | 1005.1 |
| 20260505162529 | 40 | 360 | 15.0 | 23.0 | 0.00 | 0.00 | 0.00 | 47 | 1005.0 |
| 20260505162029 | 40 | 360 | 15.0 | 23.0 | 0.00 | 0.00 | 0.00 | 46 | 1005.0 |
| 20260505161529 | 40 | 360 | 16.0 | 30.0 | 0.00 | 0.00 | 0.00 | 47 | 1005.0 |
| 20260505161032 | 39 | 360 | 16.0 | 30.0 | 0.00 | 0.00 | 0.00 | 48 | 1005.0 |
| 20260505160532 | 39 | 360 | 16.0 | 25.0 | 0.00 | 0.00 | 0.00 | 49 | 1005.0 |
| 20260505153035 | 38 | 360 | 16.0 | 21.0 | 0.00 | 0.00 | 0.00 | 48 | 1005.1 |
| 20260505152529 | 38 | 360 | 14.0 | 22.0 | 0.00 | 0.00 | 0.00 | 47 | 1005.1 |
| 20260505152028 | 38 | 360 | 13.0 | 19.0 | 0.00 | 0.00 | 0.00 | 47 | 1005.0 |
| 20260505151534 | 38 | 360 | 13.0 | 22.0 | 0.00 | 0.00 | 0.00 | 49 | 1005.0 |
| 20260505151028 | 38 | 360 | 15.0 | 21.0 | 0.00 | 0.00 | 0.00 | 49 | 1005.0 |
| 20260505150529 | 38 | 360 | 13.0 | 21.0 | 0.00 | 0.00 | 0.00 | 50 | 1005.0 |
| 20260505140524 | 37 | 360 | 12.0 | 21.0 | 0.00 | 0.00 | 0.00 | 57 | 1004.7 |
| 20260505125018 | 35 | 360 | 11.0 | 14.0 | 0.00 | 0.00 | 0.00 | 65 | 1003.9 |
| 20260505124518 | 35 | 360 | 9.0 | 12.0 | 0.00 | 0.00 | 0.00 | 66 | 1003.9 |
| 20260505123516 | 35 | 360 | 9.0 | 12.0 | 0.00 | 0.00 | 0.00 | 66 | 1003.8 |
| 20260505123017 | 35 | 360 | 8.0 | 12.0 | 0.00 | 0.00 | 0.00 | 66 | 1003.7 |
| 20260505122516 | 35 | 360 | 8.0 | 12.0 | 0.00 | 0.00 | 0.00 | 66 | 1003.7 |
| 20260505122016 | 35 | 360 | 9.0 | 11.0 | 0.00 | 0.00 | 0.00 | 66 | 1003.5 |
| 20260505121516 | 35 | 360 | 7.0 | 13.0 | 0.00 | 0.00 | 0.00 | 67 | 1003.6 |
| 20260505121016 | 35 | 360 | 8.0 | 13.0 | 0.00 | 0.00 | 0.00 | 66 | 1003.5 |
| 20260505120516 | 34 | 360 | 9.0 | 13.0 | 0.00 | 0.00 | 0.00 | 66 | 1003.5 |
| 20260505120015 | 34 | 360 | 9.0 | 12.0 | 0.00 | 0.00 | 0.00 | 66 | 1003.4 |
| 20260505115516 | 34 | 360 | 9.0 | 12.0 | 0.00 | 0.00 | 0.00 | 66 | 1003.5 |
| 20260505115017 | 34 | 360 | 8.0 | 12.0 | 0.00 | 0.00 | 0.00 | 66 | 1003.4 |
| 20260505114514 | 35 | 360 | 9.0 | 13.0 | 0.00 | 0.00 | 0.00 | 65 | 1003.4 |
| 20260505113513 | 35 | 360 | 9.0 | 14.0 | 0.00 | 0.00 | 0.00 | 65 | 1003.3 |
| 20260505113015 | 35 | 360 | 11.0 | 14.0 | 0.00 | 0.00 | 0.00 | 64 | 1003.3 |
| 20260505112513 | 35 | 360 | 11.0 | 18.0 | 0.00 | 0.00 | 0.00 | 64 | 1003.3 |
| 20260505112018 | 35 | 360 | 11.0 | 18.0 | 0.00 | 0.00 | 0.00 | 64 | 1003.4 |
| 20260505111614 | 35 | 360 | 10.0 | 15.0 | 0.00 | 0.00 | 0.00 | 64 | 1003.3 |
| 20260505111013 | 35 | 360 | 9.0 | 12.0 | 0.00 | 0.00 | 0.00 | 64 | 1003.3 |
| 20260505110513 | 35 | 360 | 8.0 | 12.0 | 0.00 | 0.00 | 0.00 | 63 | 1003.2 |
| 20260505102011 | 35 | 360 | 6.0 | 10.0 | 0.00 | 0.00 | 0.00 | 62 | 1003.0 |
| 20260505101508 | 35 | 360 | 7.0 | 10.0 | 0.00 | 0.00 | 0.00 | 62 | 1003.1 |
| 20260505101007 | 35 | 360 | 6.0 | 9.0 | 0.00 | 0.00 | 0.00 | 62 | 1003.0 |
| 20260505100507 | 35 | 360 | 6.0 | 10.0 | 0.00 | 0.00 | 0.00 | 62 | 1003.0 |
| 20260505100007 | 35 | 360 | 7.0 | 9.0 | 0.00 | 0.00 | 0.00 | 62 | 1003.1 |
| 20260505095506 | 35 | 360 | 6.0 | 10.0 | 0.00 | 0.00 | 0.00 | 62 | 1003.0 |
| 20260505095007 | 35 | 360 | 7.0 | 11.0 | 0.00 | 0.00 | 0.00 | 61 | 1002.9 |
| 20260505094507 | 35 | 360 | 8.0 | 11.0 | 0.00 | 0.00 | 0.00 | 61 | 1002.8 |
| 20260505093512 | 35 | 360 | 8.0 | 11.0 | 0.00 | 0.00 | 0.00 | 61 | 1002.9 |
| 20260505093006 | 35 | 360 | 8.0 | 11.0 | 0.00 | 0.00 | 0.00 | 60 | 1002.9 |
| 20260505092505 | 35 | 360 | 8.0 | 11.0 | 0.00 | 0.00 | 0.00 | 60 | 1002.8 |
| 20260505092005 | 35 | 360 | 7.0 | 10.0 | 0.00 | 0.00 | 0.00 | 60 | 1002.7 |
| 20260505091505 | 35 | 360 | 7.0 | 10.0 | 0.00 | 0.00 | 0.00 | 59 | 1002.7 |
| 20260505091004 | 35 | 360 | 8.0 | 10.0 | 0.00 | 0.00 | 0.00 | 59 | 1002.8 |
| 20260505090506 | 35 | 360 | 7.0 | 11.0 | 0.00 | 0.00 | 0.00 | 59 | 1002.8 |
| 20260505090005 | 35 | 360 | 8.0 | 11.0 | 0.00 | 0.00 | 0.00 | 59 | 1002.7 |
| 20260505085505 | 35 | 360 | 8.0 | 11.0 | 0.00 | 0.00 | 0.00 | 59 | 1002.6 |
| 20260505085007 | 35 | 360 | 8.0 | 12.0 | 0.00 | 0.00 | 0.00 | 59 | 1002.6 |
| 20260505084510 | 35 | 360 | 8.0 | 12.0 | 0.00 | 0.00 | 0.00 | 59 | 1002.7 |
| 20260505083503 | 35 | 360 | 8.0 | 10.0 | 0.00 | 0.00 | 0.00 | 59 | 1002.8 |
| 20260505083010 | 35 | 360 | 7.0 | 10.0 | 0.00 | 0.00 | 0.00 | 59 | 1002.7 |
| 20260505082503 | 35 | 360 | 7.0 | 10.0 | 0.00 | 0.00 | 0.00 | 59 | 1002.8 |
| 20260505082007 | 35 | 360 | 7.0 | 9.0 | 0.00 | 0.00 | 0.00 | 59 | 1002.7 |
| 20260505081502 | 35 | 360 | 7.0 | 11.0 | 0.00 | 0.00 | 0.00 | 59 | 1002.7 |
| 20260505081004 | 36 | 360 | 7.0 | 12.0 | 0.00 | 0.00 | 0.00 | 58 | 1002.6 |
| 20260505080501 | 36 | 360 | 8.0 | 12.0 | 0.00 | 0.00 | 0.00 | 58 | 1002.7 |